Regional Weather Roundup
Issued by NWS

Home | Current Version | Previous Version | Text Only | Print | Product List | Glossary Off
Versions: 1 2 3 4 5 6 7 8 9 10 11 12 13 14 15 16 17 18 19 20 21 22 23 24 25 26 27 28 29 30 31 32 33 34 35 36 37 38 39 40 41 42 43 44 45 46 47 48 49 50

000
ASUS43 KLMK 191110
RWRKY
KENTUCKY REGIONAL WEATHER ROUNDUP
NATIONAL WEATHER SERVICE LOUISVILLE KY
600 AM EST THU JAN 19 2017

NOTE "FAIR" INDICATES FEW OR NO CLOUDS BELOW 12,000 FEET
WITH NO SIGNIFICANT WEATHER AND/OR OBSTRUCTIONS TO VISIBILITY.

KYZ001>023-026-027-061>063-070>075-191200-
WESTERN AND SOUTH CENTRAL KENTUCKY

CITY           SKY/WX    TMP DP  RH WIND       PRES   REMARKS
PADUCAH        CLOUDY    45  42  89 E9        29.96F FOG
HENDERSON      CLOUDY    43  36  75 E7        30.01F
OWENSBORO      CLOUDY    43  38  82 E7        30.03F
HOPKINSVILLE   DRIZZLE   45  45 100 E7        30.01F
BOWLING GREEN  CLOUDY    46  40  79 N5        30.04F
GLASGOW        CLOUDY    44  43  97 NE5       30.04F
$$

KYZ024-025-028>034-038-045-046-053-191200-
NORTH CENTRAL KENTUCKY

CITY           SKY/WX    TMP DP  RH WIND       PRES   REMARKS
LOUISVILLE/SDF CLOUDY    41  36  82 CALM      30.09R
LOUISVILLE/LOU CLOUDY    41  36  82 CALM      30.10R
FORT KNOX      CLOUDY    40  37  92 E6        30.05F
$$

KYZ035>037-039>044-047>052-055>060-089>105-191200-
NORTHEAST KENTUCKY

CITY           SKY/WX    TMP DP  RH WIND       PRES   REMARKS
LEXINGTON      CLOUDY    40  36  86 E6        30.07F
COVINGTON      CLOUDY    38  36  92 E3        30.09S
FRANKFORT      MOCLDY    38  35  89 E3        30.07S
$$

KYZ054-064>069-076>088-106>120-191200-
SOUTHEAST KENTUCKY

CITY           SKY/WX    TMP DP  RH WIND       PRES   REMARKS
JACKSON        PTCLDY    38  36  92 CALM      30.08S
LONDON         PTCLDY    38  35  89 CALM      30.06F
SOMERSET       CLOUDY    37  37 100 CALM      30.08S
MIDDLESBORO    CLOUDY    38  38 100 CALM      30.09F
MONTICELLO     CLOUDY    41  39  93 VRB5      30.07F
$$





USA.gov is the U.S. government's official web portal to all federal, state and local government web resources and services.